User: anonymous   Login
Location: Unspecified
(0.0000°N, 0.0000°E)
Time: 10:34:13
(UTC+00:00)
Language:

DSP F5R - Orbit

View from above orbital plane
View from above orbital plane
View from above satellite
View from above satellite

Ground track
Ground track

The orbit data is extracted from the following two-line orbital elements,

1 18583U 87097A   18220.58209928 0.00000000  00000-0  00000-0 0    05
2 18583  14.3817 359.0669 0022654 213.1254 146.7409  0.98389303    00
Epoch (UTC): 08 August 2018 13:58:13
Eccentricity: 0.0022654
inclination: 14.3817°
perigee height: 36225 km
apogee height: 36419 km
right ascension of ascending node: 359.0669°
argument of perigee: 213.1254°
revolutions per day: 0.98389303
mean anomaly at epoch: 146.7409°
orbit number at epoch: 0

The dashed part of the orbit path shows where the satellite is in the earth's shadow,  

DLR